This is the latest recevied weather packets stored in our database for station/object APPOWX. If no packets are shown the sender has not sent any weather packets the latest 10 day(s).
| Time | Temp. | Humidity | Pressure | Rain* | Wind** | Luminosity | Snow |
|---|---|---|---|---|---|---|---|
| 1778271925 | 19.44° C | 38% | 1016.3 hPa | 0 mm | - | - | - |
| 1778271864 | 19.44° C | 38% | 1016.1 hPa | 0 mm | - | - | - |
| 1778271804 | 19.44° C | 38% | 1016.2 hPa | 0 mm | - | - | - |
| 1778271744 | 19.44° C | 39% | 1016.3 hPa | 0 mm | - | - | - |
| 1778271683 | 20° C | 36% | 1016.1 hPa | 0 mm | - | - | - |
| 1778271624 | 20° C | 36% | 1016.2 hPa | 0 mm | - | - | - |
| 1778271564 | 20° C | 38% | 1016.2 hPa | 0 mm | - | - | - |
| 1778271504 | 20° C | 39% | 1016.3 hPa | 0 mm | - | - | - |
| 1778271444 | 20° C | 35% | 1016.3 hPa | 0 mm | - | - | - |
| 1778271384 | 20° C | 36% | 1016.3 hPa | 0 mm | - | - | - |
| 1778271323 | 19.44° C | 37% | 1016.3 hPa | 0 mm | - | - | - |
| 1778271263 | 19.44° C | 36% | 1016.1 hPa | 0 mm | - | - | - |
| 1778271204 | 19.44° C | 36% | 1016.1 hPa | 0 mm | - | - | - |
| 1778271143 | 19.44° C | 39% | 1016.2 hPa | 0 mm | - | - | - |
| 1778271083 | 19.44° C | 39% | 1016.2 hPa | 0 mm | - | - | - |
| 1778271023 | 19.44° C | 37% | 1016.1 hPa | 0 mm | - | - | - |
| 1778270963 | 19.44° C | 39% | 1016.3 hPa | 0 mm | - | - | - |
| 1778270903 | 19.44° C | 37% | 1016.4 hPa | 0 mm | - | - | - |
| 1778270843 | 20° C | 36% | 1016.3 hPa | 0 mm | - | - | - |
| 1778270783 | 20° C | 39% | 1016.3 hPa | 0 mm | - | - | - |
| 1778270723 | 20° C | 36% | 1016.4 hPa | 0 mm | - | - | - |
| 1778270663 | 20° C | 39% | 1016.2 hPa | 0 mm | - | - | - |
| 1778270603 | 19.44° C | 38% | 1016.3 hPa | 0 mm | - | - | - |
| 1778270543 | 19.44° C | 37% | 1016.3 hPa | 0 mm | - | - | - |
| 1778270483 | 19.44° C | 38% | 1016.4 hPa | 0 mm | - | - | - |
* Rain latest hour (hover to see other rain measurements)
** Current wind speed in m/s (hover to see current wind gust speed)